STARLINK-5423 (55670 NORAD) Tracking and Keplerian Element Data

This shows tracking and keplerian element data for the satellite.

Feedback or suggestion? Click here.




ElementValue
Catalog55670
NameSTARLINK-5423
Epoch Orbit625
Epoch Day85.16904869
Epoch Year2023
RAAN47.5857
Inclination70.0029
Eccentricity0.0003334
Argument of Perigee257.8987
Mean Anonmoly102.1835
Mean Motion15.69938475
Decay Rate6.537E-05
L11 55670U 23021AU 23085.16904869 .00006537 00000+0 56055-4 0 9997
L22 55670 70.0029 47.5857 0003334 257.8987 102.1835 15.69938475 6258



Live tracking and technical data element details for STARLINK-5423 (NORAD 55670). STARLINK-5423 can be tracked NOW for your location showing map with azimuth and elevation plus other details from your city location.







IsCatalogInMostPopularTable: catalog: 55670, numindb: 2
Update: records affected: 1



GetName: 55670 STARLINK-5423

Hit Count: updated at: Tue, 28 Mar 2023 02:11:21 GMT